[[{"header":{"parameterUnit":"m.s-1","parameterCategory":1,"la1":30.2991,"la2":30.254,"lo1":-89.0895,"lo2":-89.0444,"dy":0.0017,"dx":0.0017,"nx":28,"ny":28,"refTime":"2023-10-21T21:00:00:Z","depth":0,"parameterNumber":2,"parameterNumberName":"U-component_of_WINDS"},"data":[0,0,0,0,0,0,0,0,0,0,0,0,0,0,0,0,0,0,0,0,0,0,0,0,0,0,0,0,0,0,0,0,0,0,0,0,0,0,0,0,0,0,0,0,0,0,0,0,0,0,0,0,0,0,0,0,0,0,-1.6287,-1.6287,0,-1.6288,-1.6288,-1.6288,-1.6242,-1.6241,-1.6239,-1.6238,-1.6239,-1.624,-1.6241,0,0,0,0,0,0,0,0,0,0,0,0,0,-1.6248,-1.6249,-1.6287,-1.6287,-1.6287,-1.6288,-1.6288,-1.6288,-1.6242,-1.6241,-1.6239,-1.6238,-1.6239,-1.624,-1.6241,0,0,0,0,0,0,0,0,0,0,0,0,0,-1.6258,-1.6249,-1.6287,-1.6265,-1.6263,-1.6288,-1.6288,-1.6288,-1.6242,-1.6241,-1.6239,-1.6237,-1.6238,-1.624,-1.6241,-1.6289,0,0,-1.6247,-1.6247,0,0,0,0,0,0,0,0,-1.6258,-1.626,-1.6268,-1.6266,-1.6264,-1.6263,-1.6274,-1.6288,-1.6243,-1.625,-1.6238,-1.6236,-1.6248,-1.6249,-1.6253,-1.6289,-1.6289,-1.6247,-1.6248,-1.6249,-1.6249,0,0,0,0,0,0,0,-1.6257,-1.6259,-1.6288,-1.6268,-1.6266,-1.6255,-1.6254,-1.6276,-1.6259,-1.6249,-1.6246,-1.6247,-1.6247,-1.6252,-1.6253,-1.6289,-1.6247,-1.6248,-1.6249,-1.625,-1.6365,-1.6367,0,0,0,0,0,0,-1.6259,-1.6259,-1.6288,-1.6288,-1.6256,-1.6257,-1.6256,-1.6265,-1.6259,-1.6256,-1.6248,-1.6245,-1.625,-1.6251,-1.6253,-1.6309,-1.6249,-1.625,-1.6251,-1.6363,-1.6365,-1.6367,0,0,0,0,0,0,-1.6259,-1.6262,-1.6288,-1.6272,-1.6275,-1.6259,-1.627,-1.6266,-1.6271,-1.6258,-1.6255,-1.6256,-1.6248,-1.625,-1.628,-1.6309,-1.6251,-1.6253,-1.636,-1.6363,-1.6366,-1.6422,0,0,0,0,0,0,-1.6258,-1.6262,-1.628,-1.6273,-1.6276,-1.6315,-1.6271,-1.6267,-1.6274,-1.6269,-1.6265,-1.6262,-1.6247,-1.6278,-1.6282,-1.631,-1.6254,-1.6358,-1.6362,-1.6365,-1.6417,-1.6426,-1.6434,0,0,0,0,0,-1.6256,-1.6295,-1.6281,-1.6285,-1.6297,-1.6317,-1.6318,-1.63,-1.6276,-1.6294,-1.6286,-1.6263,-1.6304,-1.6282,-1.6286,-1.6314,-1.6356,-1.6361,-1.6365,-1.6414,-1.6424,-1.6434,0,0,0,0,0,0,-1.6305,-1.6294,-1.6278,-1.6316,-1.6318,-1.6309,-1.6331,-1.6312,-1.632,-1.6315,-1.6292,-1.6291,-1.6326,-1.6323,-1.6297,-1.6361,-1.6326,-1.6332,-1.6362,-1.6372,-1.638,-1.6381,-1.6255,0,0,0,0,0,-1.632,-1.6337,-1.6326,-1.636,-1.6362,-1.6347,-1.6354,-1.634,-1.6341,-1.6342,-1.6336,-1.6338,-1.6352,-1.6361,-1.6373,-1.6416,-1.6416,-1.6438,-1.6446,-1.6453,-1.6459,-1.6483,-1.6494,-1.6382,-1.6382,-1.6382,0,0,-1.6352,-1.6348,-1.6359,-1.637,-1.637,-1.6388,-1.6348,-1.6368,-1.6382,-1.6345,-1.6373,-1.6369,-1.637,-1.6408,-1.6424,-1.6406,-1.6489,-1.6459,-1.6464,-1.6466,-1.6489,-1.65,-1.6509,-1.6385,-1.6385,-1.6384,0,0,-1.6419,-1.6417,-1.6446,-1.6447,-1.6447,-1.6437,-1.6444,-1.6439,-1.6435,-1.6463,-1.6436,-1.6452,-1.6475,-1.6478,-1.6482,-1.6551,-1.6531,-1.6556,-1.66,-1.6624,-1.6633,-1.664,-1.6667,-1.6677,-1.6561,-1.6561,-1.6561,0,-1.6458,-1.6485,-1.6463,-1.6487,-1.6493,-1.646,-1.649,-1.6492,-1.6496,-1.6501,-1.6481,-1.6512,-1.651,-1.6548,-1.6565,-1.6569,-1.6577,-1.6557,-1.6633,-1.664,-1.6647,-1.6673,-1.6682,-1.6564,-1.6564,-1.6563,-1.6563,0,-1.6534,-1.6553,-1.6576,-1.6582,-1.6591,-1.6617,-1.66,-1.6612,-1.6596,-1.6588,-1.6618,-1.6615,-1.6626,-1.6634,-1.6619,-1.6671,-1.666,-1.6637,-1.6602,-1.6662,-1.6685,-1.6694,-1.6569,-1.6568,-1.6567,-1.6566,0,0,-1.6633,-1.6627,-1.6636,-1.6639,-1.6638,-1.6652,-1.6677,-1.6688,-1.67,-1.6703,-1.6725,-1.6746,-1.6725,-1.673,-1.6715,-1.6736,-1.6794,-1.671,-1.671,-1.6728,-1.6853,-1.6872,-1.6884,-1.6779,-1.6781,-1.6782,-1.6854,0,-1.67,-1.6743,-1.6725,-1.677,-1.6788,-1.6758,-1.678,-1.6782,-1.6775,-1.6789,-1.6781,-1.6798,-1.6767,-1.677,-1.679,-1.6783,-1.6819,-1.6777,-1.68,-1.6802,-1.6803,-1.6895,-1.6915,-1.6983,-1.6862,-1.6864,-1.6865,0,-1.6784,-1.6792,-1.684,-1.6836,-1.6843,-1.6864,-1.6873,-1.6887,-1.6889,-1.6882,-1.6889,-1.6869,-1.6894,-1.6859,-1.6894,-1.6866,-1.6874,-1.6872,-1.6874,-1.6878,-1.6838,-1.6903,-1.7004,-1.7015,-1.6879,-1.6878,-1.6877,0,-1.6854,-1.6877,-1.6909,-1.6912,-1.6908,-1.6923,-1.6922,-1.6922,-1.6931,-1.6939,-1.6945,-1.6956,-1.6962,-1.6972,-1.6956,-1.6931,-1.6995,-1.6957,-1.6991,-1.6992,-1.7008,-1.7007,-1.7114,-1.701,-1.7009,-1.7009,-1.7009,0,-1.6932,-1.6963,-1.694,-1.696,-1.6994,-1.6973,-1.7007,-1.7003,-1.7003,-1.7022,-1.6995,-1.7013,-1.6991,-1.7007,-1.6995,-1.7027,-1.703,-1.7026,-1.7023,-1.703,-1.7031,-1.7037,-1.7033,-1.7012,-1.7011,-1.7011,-1.701,0,-1.7017,-1.7003,-1.7036,-1.703,-1.7029,-1.7054,-1.7049,-1.7068,-1.7059,-1.7083,-1.7088,-1.7074,-1.7092,-1.7077,-1.7094,-1.7086,-1.713,-1.7119,-1.713,-1.7128,-1.7164,-1.7162,-1.7279,-1.7295,-1.7179,-1.718,-1.7181,0,-1.7069,-1.7092,-1.7088,-1.7099,-1.71,-1.7118,-1.7127,-1.7107,-1.7117,-1.7121,-1.714,-1.7155,-1.7167,-1.7198,-1.719,-1.7203,-1.7193,-1.7234,-1.7195,-1.7202,-1.7197,-1.7197,-1.72,-1.7242,-1.7244,-1.7245,-1.7246,0,-1.7163,-1.7155,-1.7169,-1.7181,-1.7192,-1.72,-1.7206,-1.7217,-1.7196,-1.721,-1.7228,-1.7237,-1.7255,-1.7272,-1.7283,-1.7282,-1.7262,-1.7257,-1.7267,-1.7275,-1.7282,-1.7281,-1.7154,-1.7255,-1.7254,-1.7254,-1.7253,-1.7253,-1.7234,-1.7254,-1.7255,-1.7272,-1.7274,-1.7281,-1.7299,-1.7292,-1.7307,-1.7321,-1.7308,-1.7331,-1.7333,-1.7345,-1.7347,-1.7365,-1.7349,-1.7361,-1.7365,-1.7369,-1.7375,-1.7277,-1.7367,-1.7366,-1.7366,-1.7366,-1.7366,0,-1.7329,-1.7328,-1.7344,-1.7354,-1.7367,-1.7345,-1.7351,-1.7364,-1.7385,-1.7388,-1.7401,-1.7423,-1.7439,-1.7432,-1.7447,-1.7463,-1.7454,-1.7467,-1.7467,-1.7468,-1.7388,-1.738,-1.7474,-1.7474,-1.7474,-1.7474,-1.7474,-1.7474,-1.738,-1.7413,-1.7406,-1.744,-1.7439,-1.7462,-1.7467,-1.7474,-1.7477,-1.7502,-1.7516,-1.7511,-1.7511,-1.7526,-1.754,-1.7537,-1.7545,-1.7563,-1.7557,-1.7484,-1.7473,-1.7463,-1.7455,-1.7564,-1.7564,-1.7636,-1.7636,-1.7637]},{"header":{"parameterUnit":"m.s-1","parameterCategory":1,"la1":30.2991,"la2":30.254,"lo1":-89.0895,"lo2":-89.0444,"dy":0.0017,"dx":0.0017,"nx":28,"ny":28,"refTime":"2023-10-21T21:00:00:Z","depth":0,"parameterNumber":3,"parameterNumberName":"V-component_of_WINDS"},"data":[0,0,0,0,0,0,0,0,0,0,0,0,0,0,0,0,0,0,0,0,0,0,0,0,0,0,0,0,0,0,0,0,0,0,0,0,0,0,0,0,0,0,0,0,0,0,0,0,0,0,0,0,0,0,0,0,0,0,-0.573,-0.5731,0,-0.5786,-0.5787,-0.5787,-0.5784,-0.5783,-0.5782,-0.5781,-0.5839,-0.5841,-0.5843,0,0,0,0,0,0,0,0,0,0,0,0,0,-0.562,-0.5622,-0.573,-0.5731,-0.5731,-0.5786,-0.5787,-0.5787,-0.5784,-0.5783,-0.5782,-0.5781,-0.5838,-0.5841,-0.5844,0,0,0,0,0,0,0,0,0,0,0,0,0,-0.5671,-0.5623,-0.573,-0.5736,-0.5737,-0.5786,-0.5787,-0.5788,-0.5784,-0.5783,-0.5782,-0.578,-0.5837,-0.5841,-0.5844,-0.589,0,0,-0.5854,-0.5856,0,0,0,0,0,0,0,0,-0.5668,-0.5675,-0.5735,-0.5736,-0.5737,-0.5777,-0.5769,-0.5822,-0.5784,-0.5766,-0.5781,-0.578,-0.5819,-0.5824,-0.5837,-0.5892,-0.5895,-0.5855,-0.5857,-0.5858,-0.5859,0,0,0,0,0,0,0,-0.5664,-0.5672,-0.5752,-0.5735,-0.5737,-0.5736,-0.5742,-0.5779,-0.5799,-0.5768,-0.5768,-0.5774,-0.582,-0.5834,-0.5839,-0.5896,-0.5855,-0.5858,-0.586,-0.5861,-0.5991,-0.5992,0,0,0,0,0,0,-0.566,-0.567,-0.575,-0.5754,-0.5699,-0.5739,-0.5746,-0.5765,-0.5799,-0.5802,-0.5775,-0.5774,-0.5829,-0.5835,-0.5841,-0.5896,-0.5858,-0.5862,-0.5864,-0.5989,-0.5991,-0.5992,0,0,0,0,0,0,-0.5657,-0.5667,-0.5748,-0.5712,-0.5722,-0.5742,-0.5764,-0.5767,-0.5781,-0.5804,-0.5808,-0.5786,-0.5828,-0.5836,-0.5877,-0.5898,-0.5863,-0.5866,-0.5988,-0.599,-0.5992,-0.6008,0,0,0,0,0,0,-0.5654,-0.5666,-0.5684,-0.5712,-0.5724,-0.5784,-0.5765,-0.5769,-0.5787,-0.5786,-0.5815,-0.5819,-0.5828,-0.5872,-0.5881,-0.5902,-0.5869,-0.5986,-0.5989,-0.5991,-0.6005,-0.601,-0.6014,0,0,0,0,0,-0.565,-0.5686,-0.5685,-0.5694,-0.5747,-0.5785,-0.5792,-0.5801,-0.5789,-0.5807,-0.5821,-0.5818,-0.5894,-0.5877,-0.5886,-0.5909,-0.5985,-0.5988,-0.5991,-0.6004,-0.6009,-0.6014,0,0,0,0,0,0,-0.566,-0.569,-0.5689,-0.5735,-0.5758,-0.5785,-0.5808,-0.5807,-0.5833,-0.5831,-0.5841,-0.5848,-0.589,-0.5903,-0.5883,-0.5955,-0.5938,-0.5943,-0.5944,-0.595,-0.5954,-0.595,-0.5872,0,0,0,0,0,-0.5668,-0.5697,-0.5721,-0.576,-0.5771,-0.5787,-0.5805,-0.5809,-0.5833,-0.5843,-0.5861,-0.5884,-0.5913,-0.5932,-0.596,-0.6007,-0.6013,-0.6027,-0.6032,-0.6035,-0.604,-0.6065,-0.6072,-0.6002,-0.6002,-0.6002,0,0,-0.5684,-0.5704,-0.5722,-0.5762,-0.578,-0.581,-0.5796,-0.5828,-0.585,-0.5848,-0.5888,-0.5902,-0.5928,-0.5973,-0.5993,-0.5986,-0.606,-0.6039,-0.6042,-0.6044,-0.6069,-0.6075,-0.6081,-0.6005,-0.6004,-0.6004,0,0,-0.5728,-0.5746,-0.578,-0.5798,-0.5826,-0.5836,-0.5844,-0.5871,-0.588,-0.5921,-0.592,-0.5946,-0.5996,-0.6015,-0.6031,-0.6081,-0.6079,-0.609,-0.6113,-0.6138,-0.6143,-0.6148,-0.6166,-0.6172,-0.6094,-0.6094,-0.6094,0,-0.5745,-0.579,-0.5798,-0.583,-0.5848,-0.5847,-0.5881,-0.5898,-0.5934,-0.5946,-0.5937,-0.5999,-0.6017,-0.6065,-0.6077,-0.609,-0.61,-0.6087,-0.6142,-0.6147,-0.6151,-0.6169,-0.6175,-0.6096,-0.6095,-0.6095,-0.6095,0,-0.5809,-0.584,-0.5864,-0.5898,-0.5918,-0.5951,-0.5964,-0.5984,-0.5986,-0.5998,-0.6039,-0.606,-0.6092,-0.6103,-0.6107,-0.6152,-0.6147,-0.6139,-0.6123,-0.6159,-0.6175,-0.6182,-0.6097,-0.6097,-0.6096,-0.6096,0,0,-0.5862,-0.5899,-0.5908,-0.5923,-0.5953,-0.5977,-0.6009,-0.6041,-0.6057,-0.6081,-0.6109,-0.6151,-0.6144,-0.6162,-0.6167,-0.6189,-0.6227,-0.6179,-0.6179,-0.6187,-0.6279,-0.6285,-0.6292,-0.6225,-0.6227,-0.6228,-0.6277,0,-0.591,-0.5969,-0.5976,-0.6028,-0.6056,-0.6055,-0.6084,-0.6105,-0.6116,-0.6141,-0.6154,-0.6183,-0.6172,-0.6183,-0.6204,-0.6218,-0.6246,-0.6214,-0.6252,-0.6253,-0.6246,-0.6301,-0.6307,-0.6352,-0.6283,-0.6284,-0.6285,0,-0.5974,-0.5999,-0.6054,-0.6079,-0.6091,-0.6117,-0.6145,-0.617,-0.6194,-0.62,-0.622,-0.6222,-0.6256,-0.6237,-0.6283,-0.6262,-0.6277,-0.6286,-0.6288,-0.6292,-0.6272,-0.6307,-0.6367,-0.6374,-0.6295,-0.6294,-0.6294,0,-0.6008,-0.6056,-0.6094,-0.6107,-0.6137,-0.6155,-0.6168,-0.6191,-0.6209,-0.6234,-0.6245,-0.6274,-0.629,-0.6312,-0.6321,-0.6307,-0.6367,-0.6349,-0.6373,-0.6373,-0.6387,-0.6386,-0.6451,-0.6396,-0.6396,-0.6396,-0.6396,0,-0.6061,-0.6094,-0.611,-0.6134,-0.6171,-0.6179,-0.6215,-0.6228,-0.6248,-0.6274,-0.6274,-0.6298,-0.6309,-0.6335,-0.6343,-0.638,-0.6387,-0.6393,-0.6395,-0.6394,-0.6393,-0.6404,-0.6402,-0.6398,-0.6397,-0.6397,-0.6396,0,-0.6105,-0.6117,-0.6159,-0.6184,-0.6191,-0.6217,-0.6238,-0.6261,-0.6271,-0.6304,-0.6312,-0.6329,-0.6359,-0.6371,-0.6408,-0.6413,-0.6456,-0.6455,-0.6448,-0.6449,-0.6472,-0.647,-0.6547,-0.6557,-0.6496,-0.6496,-0.6497,0,-0.6139,-0.6164,-0.6191,-0.6209,-0.6223,-0.6251,-0.6269,-0.6278,-0.6296,-0.6325,-0.6344,-0.6374,-0.6399,-0.6448,-0.6463,-0.6492,-0.6491,-0.6516,-0.6496,-0.6493,-0.6492,-0.6491,-0.6493,-0.652,-0.6521,-0.6522,-0.6522,0,-0.6196,-0.6201,-0.6227,-0.6255,-0.6277,-0.6299,-0.6321,-0.6335,-0.6347,-0.6368,-0.6399,-0.6419,-0.6456,-0.6486,-0.6515,-0.6529,-0.6527,-0.6528,-0.6535,-0.6534,-0.653,-0.6533,-0.6459,-0.6527,-0.6526,-0.6526,-0.6526,-0.6525,-0.6237,-0.6259,-0.6282,-0.6311,-0.6328,-0.6348,-0.6371,-0.6384,-0.641,-0.6441,-0.6444,-0.6478,-0.65,-0.6538,-0.6553,-0.6579,-0.6573,-0.6583,-0.6586,-0.6588,-0.659,-0.6525,-0.6584,-0.6584,-0.6584,-0.6584,-0.6584,0,-0.6295,-0.6309,-0.6335,-0.6366,-0.6388,-0.6385,-0.6408,-0.6428,-0.6457,-0.6478,-0.6502,-0.6537,-0.6566,-0.6583,-0.6612,-0.663,-0.663,-0.6637,-0.6636,-0.6639,-0.6594,-0.6585,-0.6636,-0.6636,-0.6636,-0.6636,-0.6636,-0.6636,-0.6328,-0.6365,-0.6372,-0.6418,-0.6432,-0.6465,-0.6479,-0.6497,-0.6514,-0.6553,-0.6577,-0.6588,-0.6607,-0.6637,-0.6663,-0.6668,-0.6678,-0.6686,-0.669,-0.6648,-0.6642,-0.6637,-0.6629,-0.6689,-0.6689,-0.6733,-0.6733,-0.6734]}]]